JCSAT-14

Last updated on Nov. 16, 2016, 5:19 p.m. UTC

1 41471U 16028A   16321.41682532 -.00000175  00000-0  00000+0 0  9991
2 41471   0.0604  99.1164 0002261 168.2166  92.6678  1.00271991  1997
UTC
Height (km)
Latitude
Longitude
Inclination
Orbital Period
UTC large
Height (km)
Speed (km/s)
/
Latitude / Longitude
Inclination (degrees)
Orbital Period (minutes)
Azimuth
Elevation
Range (km)
Doppler Factor
iOS Compass Heading
iOS Angle

Next 30 passes for location: Hong Kong

Rise time Rise Azimuth (degrees) Set time Set Azimuth (degrees) Duration Max altitude (degrees)

No matching passes for this satellites